Bismarck, ND

4:54 PM CDT on September 24, 2017 (GMT -0500)
Bismarck Municipal

Weather History for KBIS - December, 2010

Change the Weather History Date:

Friday, December 31, 2010

  Actual Average Record
Temperature  
Mean Temperature -2 °F 13 °F  
Max Temperature 2 °F 23 °F 52 °F (1963)
Min Temperature -7 °F 3 °F -43 °F (1967)
Degree Days  
Heating Degree Days 67 52  
Month to date heating degree days 1650 1514  
Since 1 July heating degree days 3517 3500  
Cooling Degree Days 0 0  
Month to date cooling degree days 0 0  
Year to date cooling degree days 507 520  
Moisture  
Dew Point -9 °F    
Average Humidity 76    
Maximum Humidity 83    
Minimum Humidity 68    
Precipitation  
Precipitation 0.01 in 0.02 in 0.37 in (1975)
Month to date precipitation 1.40 0.49  
Year to date precipitation 23.18 17.85  
Snow  
Snow 0.10 in 0.30 in 4.00 in (1975)
Month to date snowfall 21.1 9.3  
Since 1 July snowfall 34.6 20.5  
Snow Depth 11.00 in    
Sea Level Pressure  
Sea Level Pressure 29.98 in    
Wind  
Wind Speed 18 mph (NNW)    
Max Wind Speed 35 mph    
Max Gust Speed 46 mph    
Visibility 8 miles    
Events Snow    
T = Trace of Precipitation, MM = Missing Value Source: NWS Daily Summary

Daily Weather History Graph

Daily Weather History Graph

Search for Another Location

Airport or City:

Trip Planner

Search our weather history database for the weather conditions in past years. The results will help you decide how hot, cold, wet, or windy it might be!

Date:

Astronomy

Dec. 31, 2010 Rise Set
Actual Time 8:27 AM CST 5:04 PM CST
Civil Twilight 7:52 AM CST 5:39 PM CST
Nautical Twilight 7:14 AM CST 6:18 PM CST
Astronomical Twilight 6:37 AM CST 6:54 PM CST
Moon 4:58 AM CST (12/31) 1:52 PM CST (12/31)
Length of Visible Light 9h 46m
Length of Day
8h 36m
Waning Crescent, 14% of the Moon is Illuminated
Dec 31
Waning Crescent
Jan 4
New
Jan 12
First Quarter
Jan 19
Full
Jan 26
Last Quarter

Hourly Weather History & Observations

Time (CST) Temp. Windchill Dew Point Humidity Pressure Visibility Wind Dir Wind Speed Gust Speed Precip Events Conditions
12:52 AM -2.9 °F -22.4 °F -9.9 °F 72% 30.10 in 10.0 mi NNW 13.8 mph 24.2 mph N/A   Mostly Cloudy
1:52 AM -2.9 °F -23.1 °F -9.9 °F 72% 30.10 in 10.0 mi North 15.0 mph - N/A   Clear
2:52 AM -5.1 °F -24.3 °F -11.0 °F 76% 30.07 in 10.0 mi North 12.7 mph 21.9 mph N/A   Clear
3:52 AM -6.0 °F -22.6 °F -13.0 °F 72% 30.12 in 10.0 mi NNW 9.2 mph - N/A   Clear
4:52 AM -7.1 °F -25.9 °F -13.0 °F 75% 30.13 in 10.0 mi NNW 11.5 mph - N/A   Clear
5:52 AM -7.1 °F -26.8 °F -13.0 °F 75% 30.15 in 10.0 mi NW 12.7 mph 19.6 mph N/A   Clear
6:52 AM -7.1 °F -30.4 °F -13.0 °F 75% 30.16 in 10.0 mi NNW 18.4 mph 25.3 mph N/A   Scattered Clouds
7:49 AM -7.6 °F -32.3 °F -11.2 °F 84% 29.96 in 9.0 mi North 20.7 mph 26.5 mph N/A   Scattered Clouds
7:52 AM -7.1 °F -31.0 °F -11.9 °F 79% 30.12 in 9.0 mi NNW 19.6 mph 26.5 mph N/A   Scattered Clouds
8:52 AM -6.0 °F -26.3 °F -13.0 °F 72% 30.14 in 10.0 mi NNW 13.8 mph 23.0 mph N/A   Scattered Clouds
9:09 AM -5.8 °F -23.4 °F -13.0 °F 71% 29.99 in 10.0 mi NNW 10.4 mph - N/A   Mostly Cloudy
9:16 AM -5.8 °F -25.2 °F -13.0 °F 71% 29.99 in 10.0 mi North 12.7 mph 18.4 mph N/A   Scattered Clouds
9:52 AM -5.1 °F -25.9 °F -11.9 °F 72% 30.13 in 10.0 mi North 15.0 mph 19.6 mph N/A   Clear
10:52 AM -5.1 °F -23.5 °F -11.9 °F 72% 30.17 in 10.0 mi North 11.5 mph 24.2 mph N/A   Clear
11:52 AM -4.0 °F -25.2 °F -11.0 °F 72% 30.12 in 10.0 mi NNW 16.1 mph 25.3 mph N/A   Overcast
12:52 PM -2.9 °F -24.4 °F -9.9 °F 72% 30.06 in 10.0 mi North 17.3 mph 28.8 mph N/A   Partly Cloudy
1:52 PM -2.9 °F -24.4 °F -9.0 °F 75% 30.05 in 10.0 mi NNW 17.3 mph 24.2 mph N/A   Overcast
2:52 PM -2.9 °F -25.0 °F -9.0 °F 75% 30.03 in 8.0 mi NNW 18.4 mph 27.6 mph N/A   Overcast
3:52 PM -2.9 °F -26.1 °F -9.0 °F 75% 30.02 in 9.0 mi NNW 20.7 mph 29.9 mph N/A   Overcast
4:52 PM -2.9 °F -23.8 °F -9.0 °F 75% 30.01 in 9.0 mi NNW 16.1 mph 27.6 mph N/A   Overcast
5:52 PM -2.0 °F -24.4 °F -8.0 °F 76% 29.97 in 10.0 mi NNW 19.6 mph - N/A   Overcast
6:52 PM -2.0 °F -24.4 °F -8.0 °F 76% 29.96 in 6.0 mi NNW 19.6 mph 35.7 mph N/A   Haze
7:52 PM -2.0 °F -26.4 °F -7.1 °F 79% 29.95 in 6.0 mi NNW 24.2 mph 34.5 mph N/A   Haze
8:07 PM -2.2 °F -27.1 °F -7.6 °F 78% 29.80 in 5.0 mi NNW 25.3 mph 36.8 mph N/A   Haze
8:22 PM -0.4 °F -24.7 °F -5.8 °F 78% 29.77 in 4.0 mi NNW 25.3 mph 38.0 mph N/A   Haze
8:52 PM -0.9 °F -25.9 °F -5.1 °F 83% 29.90 in 4.0 mi NNW 26.5 mph 38.0 mph N/A   Scattered Clouds
9:12 PM -0.4 °F -25.2 °F -2.2 °F 92% 29.73 in 2.5 mi NNW 26.5 mph 46.0 mph N/A Snow Blowing Snow
9:25 PM -0.4 °F -25.6 °F -5.8 °F 78% 29.73 in 4.0 mi NNW 27.6 mph 39.1 mph N/A Snow Blowing Snow
9:42 PM -0.4 °F -26.0 °F -4.0 °F 85% 29.73 in 2.5 mi NNW 28.8 mph 42.6 mph N/A Snow Blowing Snow
9:52 PM -0.0 °F -24.7 °F -4.0 °F 83% 29.88 in 4.0 mi NNW 26.5 mph 39.1 mph N/A Snow Blowing Snow
10:19 PM 1.4 °F -22.7 °F -2.2 °F 85% 29.73 in 2.5 mi NNW 26.5 mph 41.4 mph 0.01 in Snow Blowing Snow
10:29 PM 1.4 °F -23.5 °F -4.0 °F 78% 29.73 in 3.0 mi NNW 28.8 mph 42.6 mph N/A Snow Blowing Snow
10:52 PM 1.9 °F -22.4 °F -4.0 °F 76% 29.88 in 5.0 mi NNW 27.6 mph 36.8 mph 0.01 in Snow Blowing Snow
11:52 PM 1.9 °F -22.4 °F -2.9 °F 80% 29.88 in 4.0 mi NNW 27.6 mph 40.3 mph N/A Snow Blowing Snow